Weather History for Sidney-Richland, MT

Change the Weather History Date:

Friday, August 29, 2014

  Actual Average Record
Temperature  
Mean Temperature 63 °F -  
Max Temperature 73 °F 82 °F 98 °F (2012)
Min Temperature 53 °F 49 °F 35 °F (1988)
Degree Days  
Heating Degree Days 2    
Growing Degree Days 13 (Base 50)    
Moisture  
Dew Point 55 °F    
Average Humidity 73    
Maximum Humidity 94    
Minimum Humidity 47    
Precipitation  
Precipitation 0.10 in - - ()
Sea Level Pressure  
Sea Level Pressure 29.96 in    
Wind  
Wind Speed 8 mph (North)    
Max Wind Speed 26 mph    
Max Gust Speed 33 mph    
Visibility 10 miles    
Events      
Averages and records for this station are not official NWS values.
T = Trace of Precipitation, MM = Missing Value Source: NWS Daily Summary

Daily Weather History Graph

Daily Weather History Graph

Search for Another Location

Airport:

Trip Planner

Search our weather history database for the weather conditions in past years. The results will help you decide how hot, cold, wet, or windy it might be!

Date:

Astronomy

Aug. 29, 2014 Rise Set
Actual Time 6:11 AM MDT 7:43 PM MDT
Civil Twilight 5:38 AM MDT 8:15 PM MDT
Nautical Twilight 4:59 AM MDT 8:54 PM MDT
Astronomical Twilight 4:16 AM MDT 9:36 PM MDT
Moon 10:22 AM MDT (8/29) 9:21 PM MDT (8/29)
Length of Visible Light 14h 36m
Length of Day
13h 31m
Waxing Crescent, 15% of the Moon is Illuminated
Aug 29
Waxing Crescent
Sep 2
First Quarter
Sep 8
Full
Sep 15
Last Quarter
Sep 24
New

Hourly Weather History & Observations

Time (MDT) Temp. Dew Point Humidity Pressure Visibility Wind Dir Wind Speed Gust Speed Precip Events Conditions
12:15 AM 64.4 °F 53.6 °F 68% 29.80 in 10.0 mi NNW 4.6 mph - N/A   Clear
12:35 AM 62.6 °F 53.6 °F 72% 29.79 in 10.0 mi NNW 5.8 mph - N/A   Clear
12:55 AM 62.6 °F 53.6 °F 72% 29.80 in 10.0 mi NNW 4.6 mph - N/A   Clear
1:15 AM 62.6 °F 53.6 °F 72% 29.84 in 10.0 mi NW 17.3 mph - N/A   Partly Cloudy
1:35 AM 66.2 °F 57.2 °F 73% 29.85 in 10.0 mi NNW 21.9 mph 33.4 mph N/A   Scattered Clouds
1:55 AM 64.4 °F 55.4 °F 73% 29.87 in 10.0 mi NNW 26.5 mph 31.1 mph N/A   Mostly Cloudy
2:15 AM 64.4 °F 55.4 °F 73% 29.89 in 10.0 mi NNW 18.4 mph 29.9 mph N/A   Mostly Cloudy
2:35 AM 64.4 °F 53.6 °F 68% 29.90 in 10.0 mi NNW 15.0 mph 27.6 mph N/A   Mostly Cloudy
2:55 AM 64.4 °F 53.6 °F 68% 29.90 in 10.0 mi North 12.7 mph - N/A   Mostly Cloudy
3:15 AM - - N/A% 29.89 in 10.0 mi North 13.8 mph - N/A   Mostly Cloudy
3:35 AM 62.6 °F 53.6 °F 72% 29.89 in 10.0 mi North 10.4 mph - N/A   Mostly Cloudy
3:55 AM 62.6 °F 53.6 °F 72% 29.89 in 10.0 mi North 5.8 mph - N/A   Mostly Cloudy
4:15 AM 62.6 °F 53.6 °F 72% 29.90 in 10.0 mi NW 5.8 mph - N/A   Overcast
4:35 AM 62.6 °F 53.6 °F 72% 29.91 in 10.0 mi NNW 5.8 mph - N/A   Mostly Cloudy
4:55 AM 60.8 °F 57.2 °F 88% 29.93 in 10.0 mi West 4.6 mph - N/A   Mostly Cloudy
5:15 AM 60.8 °F 57.2 °F 88% 29.94 in 10.0 mi West 5.8 mph - N/A   Mostly Cloudy
5:35 AM 60.8 °F 57.2 °F 88% 29.97 in 10.0 mi SW 8.1 mph - N/A   Mostly Cloudy
5:55 AM 59.0 °F 57.2 °F 94% 29.95 in 10.0 mi SSW 5.8 mph - 0.02 in   Mostly Cloudy
6:15 AM 59.0 °F 57.2 °F 94% 29.95 in 4.0 mi Calm Calm - 0.06 in   Mostly Cloudy
6:35 AM 59.0 °F 57.2 °F 94% 29.97 in 10.0 mi WNW 10.4 mph - 0.08 in   Overcast
6:55 AM 59.0 °F 57.2 °F 94% 29.96 in 10.0 mi NW 10.4 mph - 0.08 in   Mostly Cloudy
7:15 AM 59.0 °F 57.2 °F 94% 29.96 in 10.0 mi NW 10.4 mph - N/A   Clear
7:35 AM 59.0 °F 57.2 °F 94% 29.97 in 10.0 mi NW 10.4 mph - N/A   Clear
7:55 AM 59.0 °F 57.2 °F 94% 29.97 in 10.0 mi NNW 8.1 mph - N/A   Clear
8:15 AM 60.8 °F 57.2 °F 88% 29.98 in 10.0 mi NW 10.4 mph - N/A   Clear
8:35 AM 60.8 °F 57.2 °F 88% 29.99 in 10.0 mi NW 15.0 mph - N/A   Clear
8:55 AM 60.8 °F 57.2 °F 88% 29.99 in 10.0 mi NW 13.8 mph - N/A   Clear
9:15 AM 62.6 °F 57.2 °F 82% 30.00 in 10.0 mi NNW 10.4 mph - N/A   Clear
9:35 AM 60.8 °F 55.4 °F 82% 30.00 in 10.0 mi NNW 12.7 mph - N/A   Mostly Cloudy
9:55 AM 62.6 °F 57.2 °F 82% 30.00 in 10.0 mi NNW 12.7 mph - N/A   Scattered Clouds
10:15 AM 64.4 °F 57.2 °F 77% 30.00 in 10.0 mi North 10.4 mph - N/A   Partly Cloudy
10:35 AM 64.4 °F 57.2 °F 77% 30.01 in 10.0 mi North 13.8 mph - N/A   Partly Cloudy
10:55 AM 64.4 °F 55.4 °F 73% 30.02 in 10.0 mi North 11.5 mph - N/A   Mostly Cloudy
11:15 AM 66.2 °F 57.2 °F 73% 30.01 in 10.0 mi North 11.5 mph - N/A   Mostly Cloudy
11:35 AM 66.2 °F 57.2 °F 73% 30.01 in 10.0 mi North 12.7 mph - N/A   Mostly Cloudy
11:55 AM 66.2 °F 57.2 °F 73% 30.01 in 10.0 mi North 12.7 mph - N/A   Mostly Cloudy
12:15 PM 68.0 °F 57.2 °F 68% 30.01 in 10.0 mi NNW 9.2 mph - N/A   Mostly Cloudy
12:35 PM 68.0 °F 57.2 °F 68% 30.01 in 10.0 mi North 11.5 mph - N/A   Mostly Cloudy
12:55 PM 69.8 °F 57.2 °F 64% 30.01 in 10.0 mi North 13.8 mph - N/A   Scattered Clouds
1:15 PM 69.8 °F 55.4 °F 60% 30.01 in 10.0 mi North 8.1 mph - N/A   Scattered Clouds
1:35 PM 69.8 °F 55.4 °F 60% 30.01 in 10.0 mi NNE 5.8 mph - N/A   Mostly Cloudy
1:55 PM 69.8 °F 55.4 °F 60% 30.01 in 10.0 mi NE 6.9 mph - N/A   Mostly Cloudy
2:15 PM 69.8 °F 53.6 °F 56% 30.00 in 10.0 mi North 5.8 mph - N/A   Overcast
2:35 PM 69.8 °F 53.6 °F 56% 30.00 in 10.0 mi NNE 6.9 mph - N/A   Overcast
2:55 PM 69.8 °F 51.8 °F 53% 29.99 in 10.0 mi Calm Calm - N/A   Overcast
3:15 PM 69.8 °F 53.6 °F 56% 29.99 in 10.0 mi NE 8.1 mph - N/A   Overcast
3:35 PM 71.6 °F 53.6 °F 53% 29.99 in 10.0 mi Calm Calm - N/A   Mostly Cloudy
3:55 PM 71.6 °F 53.6 °F 53% 29.98 in 10.0 mi Calm Calm - N/A   Mostly Cloudy
4:15 PM 71.6 °F 53.6 °F 53% 29.98 in 10.0 mi ENE 6.9 mph - N/A   Scattered Clouds
4:35 PM 71.6 °F 53.6 °F 53% 29.98 in 10.0 mi NNE 5.8 mph - N/A   Clear
4:55 PM 71.6 °F 53.6 °F 53% 29.98 in 10.0 mi ENE 4.6 mph - N/A   Clear
5:15 PM 71.6 °F 53.6 °F 53% 29.98 in 10.0 mi ENE 5.8 mph - N/A   Clear
5:35 PM 71.6 °F 53.6 °F 53% 29.98 in 10.0 mi East 4.6 mph - N/A   Clear
5:55 PM 73.4 °F 51.8 °F 47% 29.98 in 10.0 mi East 5.8 mph - N/A   Clear
6:15 PM 71.6 °F 53.6 °F 53% 29.97 in 10.0 mi East 3.5 mph - N/A   Clear
6:35 PM - - N/A% 29.97 in 10.0 mi Calm Calm - N/A   Clear
6:55 PM 69.8 °F 53.6 °F 56% 29.97 in 10.0 mi ENE 3.5 mph - N/A   Clear
7:15 PM 68.0 °F 53.6 °F 60% 29.96 in 10.0 mi ENE 3.5 mph - N/A   Clear
7:35 PM 66.2 °F 51.8 °F 60% 29.96 in 10.0 mi Calm Calm - N/A   Clear
7:55 PM 62.6 °F 51.8 °F 68% 29.96 in 10.0 mi Calm Calm - N/A   Clear
8:15 PM 60.8 °F 53.6 °F 77% 29.97 in 10.0 mi Calm Calm - N/A   Clear
8:35 PM 62.6 °F 51.8 °F 68% 29.97 in 10.0 mi Calm Calm - N/A   Clear
8:55 PM 59.0 °F 51.8 °F 77% 29.97 in 10.0 mi Calm Calm - N/A   Clear
9:15 PM 60.8 °F 51.8 °F 72% 29.97 in 10.0 mi Calm Calm - N/A   Clear
9:35 PM 55.4 °F 51.8 °F 88% 29.97 in 10.0 mi Calm Calm - N/A   Clear
9:55 PM 55.4 °F 51.8 °F 88% 29.97 in 10.0 mi Calm Calm - N/A   Clear
10:15 PM 53.6 °F 50.0 °F 88% 29.97 in 10.0 mi Calm Calm - N/A   Clear
10:35 PM 53.6 °F 51.8 °F 94% 29.97 in 10.0 mi Calm Calm - N/A   Clear
10:55 PM 53.6 °F 51.8 °F 94% 29.97 in 10.0 mi Calm Calm - N/A   Clear
11:15 PM 55.4 °F 50.0 °F 82% 29.97 in 10.0 mi Calm Calm - N/A   Clear
11:35 PM 55.4 °F 51.8 °F 88% 29.97 in 10.0 mi SSW 4.6 mph - N/A   Clear
11:55 PM 53.6 °F 51.8 °F 94% 29.96 in 10.0 mi Calm Calm - N/A   Clear